Terug naar catalogus

STARLINK-35522

ActiefCommunicatieVLEO
NORAD 66341·PAYLOAD·🇺🇸 United States

Gelanceerd Nov 6, 2025 vanaf Cape Canaveral Space Force Station

Loading…

Volgende Passages (komende 24 uur)

TLE

VersSource: CelesTrak SupGP

Epoch: Sep 15, 2026, 03:33 UTC

1 66341C 25253Y   26258.14840278 -.00044336  00000+0 -16062-2 0  2580
2 66341  42.9994 222.7019 0001285 268.8151 245.0567 15.27593791    18

Volg STARLINK-35522 in realtime met AllMySat

Download on the App Store